When you browse on this site, cookies collect data to enhance your experience and personalize the content and advertising you see.
Visit our Privacy Policy to learn more. By continuing to use the site, you agree to this use of cookies and data.
  • Em Portugal
  • Lista de países
  • Para 7 dias
  • Temperatura da água
  • Mapas de satélite
  • Mapa do tempo
  • Widgets de tempo
  • user-avatar
    Iniciar Sessão

    Previsão horária em Bershad

    Hoje, 17 Janeiro, Quinta-feira

    Tempo Temperatura Precipitação Vento Pressão Humidade
    00:00 -10°C° 0 mm 2 m/s 740 mmHg 90%
    01:00 -10°C° 0 mm 2 m/s 741 mmHg 89%
    02:00 -9°C° 0 mm 1 m/s 741 mmHg 90%
    03:00 -10°C° 0 mm 2 m/s 741 mmHg 90%
    04:00 -9°C° 0 mm 2 m/s 741 mmHg 89%
    05:00 -10°C° 0 mm 3 m/s 741 mmHg 89%
    06:00 -10°C° 0 mm 3 m/s 741 mmHg 89%
    07:00 -10°C° 0 mm 3 m/s 741 mmHg 89%
    08:00 -11°C° 0 mm 4 m/s 741 mmHg 88%
    09:00 -10°C° 0 mm 4 m/s 741 mmHg 88%
    10:00 -8°C° 0 mm 5 m/s 741 mmHg 87%
    11:00 -7°C° 0 mm 5 m/s 741 mmHg 87%
    12:00 -6°C° 0 mm 6 m/s 741 mmHg 87%
    13:00 -5°C° 0 mm 6 m/s 740 mmHg 88%
    14:00 -4°C° 0 mm 6 m/s 740 mmHg 89%
    15:00 -5°C° 0 mm 6 m/s 740 mmHg 90%
    16:00 -5°C° 0 mm 5 m/s 740 mmHg 91%
    17:00 -6°C° 0 mm 5 m/s 740 mmHg 92%
    18:00 -6°C° 0 mm 5 m/s 740 mmHg 93%
    19:00 -5°C° 0 mm 4 m/s 739 mmHg 93%
    20:00 -5°C° 0 mm 4 m/s 739 mmHg 94%
    21:00 -5°C° 0 mm 3 m/s 739 mmHg 94%
    22:00 -6°C° 0 mm 3 m/s 739 mmHg 94%
    23:00 -6°C° 0 mm 3 m/s 739 mmHg 94%

    Amanhã, 18 Janeiro, Sexta-feira

    Tempo Temperatura Precipitação Vento Pressão Humidade
    00:00 -5°C° 0 mm 2 m/s 739 mmHg 93%
    01:00 -5°C° 0 mm 2 m/s 740 mmHg 92%
    02:00 -5°C° 0 mm 2 m/s 740 mmHg 91%
    03:00 -5°C° 0 mm 2 m/s 739 mmHg 90%
    04:00 -5°C° 0 mm 2 m/s 739 mmHg 89%
    05:00 -5°C° 0 mm 2 m/s 739 mmHg 88%
    06:00 -5°C° 0 mm 2 m/s 739 mmHg 88%
    07:00 -5°C° 0 mm 2 m/s 739 mmHg 88%
    08:00 -6°C° 0 mm 3 m/s 739 mmHg 87%
    09:00 -4°C° 0 mm 3 m/s 739 mmHg 88%
    10:00 -2°C° 0 mm 3 m/s 739 mmHg 89%
    11:00 0°C° 0 mm 3 m/s 739 mmHg 89%
    12:00 0°C° 0 mm 3 m/s 739 mmHg 92%
    13:00 0°C° 0 mm 3 m/s 739 mmHg 95%
    14:00 0°C° 0 mm 3 m/s 739 mmHg 97%
    15:00 0°C° 0 mm 3 m/s 739 mmHg 94%
    16:00 -1°C° 0 mm 3 m/s 739 mmHg 90%
    17:00 -1°C° 0 mm 3 m/s 739 mmHg 87%
    18:00 -2°C° 0 mm 2 m/s 740 mmHg 86%
    19:00 -2°C° 0 mm 2 m/s 740 mmHg 86%
    20:00 -3°C° 0 mm 2 m/s 740 mmHg 85%
    21:00 -3°C° 0 mm 2 m/s 741 mmHg 87%
    22:00 -3°C° 0 mm 2 m/s 741 mmHg 89%
    23:00 -4°C° 0 mm 3 m/s 741 mmHg 91%

    Depois de amanhã, 19 Janeiro, Sábado

    Tempo Temperatura Precipitação Vento Pressão Humidade
    00:00 -2°C° 0 mm 3 m/s 742 mmHg 91%
    01:00 -3°C° 0 mm 4 m/s 742 mmHg 91%
    02:00 -2°C° 0 mm 4 m/s 743 mmHg 91%
    03:00 -3°C° 0.1 mm 4 m/s 743 mmHg 91%
    04:00 -4°C° 0.1 mm 4 m/s 743 mmHg 91%
    05:00 -4°C° 0.1 mm 4 m/s 744 mmHg 91%
    06:00 -7°C° 0 mm 4 m/s 744 mmHg 90%
    07:00 -8°C° 0 mm 4 m/s 745 mmHg 89%
    08:00 -10°C° 0 mm 4 m/s 745 mmHg 89%
    09:00 -9°C° 0 mm 4 m/s 746 mmHg 88%
    10:00 -8°C° 0 mm 3 m/s 746 mmHg 88%
    11:00 -7°C° 0 mm 3 m/s 747 mmHg 88%
    12:00 -7°C° 0 mm 3 m/s 747 mmHg 89%
    13:00 -6°C° 0 mm 3 m/s 747 mmHg 90%
    14:00 -6°C° 0 mm 3 m/s 747 mmHg 90%
    15:00 -6°C° 0 mm 2 m/s 747 mmHg 91%
    16:00 -7°C° 0 mm 2 m/s 748 mmHg 91%
    17:00 -9°C° 0 mm 2 m/s 748 mmHg 92%
    18:00 -9°C° 0 mm 2 m/s 748 mmHg 91%
    19:00 -9°C° 0 mm 1 m/s 749 mmHg 91%
    20:00 -10°C° 0 mm 1 m/s 749 mmHg 91%
    21:00 -10°C° 0 mm 1 m/s 749 mmHg 90%
    22:00 -10°C° 0 mm 1 m/s 749 mmHg 90%
    23:00 -11°C° 0 mm 1 m/s 749 mmHg 89%

    20 Janeiro, Domingo

    Tempo Temperatura Precipitação Vento Pressão Humidade
    00:00 -11°C° 0 mm 1 m/s 749 mmHg 88%
    01:00 -11°C° 0 mm 1 m/s 749 mmHg 88%
    02:00 -11°C° 0 mm 1 m/s 749 mmHg 87%
    03:00 -11°C° 0 mm 1 m/s 749 mmHg 88%
    04:00 -12°C° 0 mm 1 m/s 749 mmHg 88%
    05:00 -14°C° 0 mm 2 m/s 749 mmHg 88%
    06:00 -13°C° 0 mm 2 m/s 749 mmHg 88%
    07:00 -13°C° 0 mm 2 m/s 749 mmHg 89%
    08:00 -13°C° 0 mm 2 m/s 749 mmHg 89%
    09:00 -13°C° 0 mm 3 m/s 748 mmHg 89%
    10:00 -10°C° 0 mm 3 m/s 748 mmHg 89%
    11:00 -10°C° 0 mm 4 m/s 748 mmHg 89%
    12:00 -9°C° 0 mm 4 m/s 748 mmHg 89%
    13:00 -9°C° 0 mm 4 m/s 747 mmHg 89%
    14:00 -8°C° 0 mm 4 m/s 746 mmHg 89%
    15:00 -8°C° 0 mm 4 m/s 746 mmHg 90%
    16:00 -8°C° 0 mm 4 m/s 745 mmHg 91%
    17:00 -8°C° 0 mm 4 m/s 745 mmHg 91%
    18:00 -8°C° 0.2 mm 4 m/s 745 mmHg 92%
    19:00 -7°C° 0.2 mm 4 m/s 744 mmHg 92%
    20:00 -7°C° 0.2 mm 4 m/s 744 mmHg 93%
    21:00 -7°C° 0.5 mm 4 m/s 744 mmHg 94%
    22:00 -7°C° 0.5 mm 4 m/s 744 mmHg 95%
    23:00 -5°C° 0.5 mm 3 m/s 743 mmHg 96%

    21 Janeiro, Segunda-feira

    Tempo Temperatura Precipitação Vento Pressão Humidade
    00:00 -5°C° 0.5 mm 3 m/s 743 mmHg 96%
    01:00 -4°C° 0.5 mm 2 m/s 743 mmHg 97%
    02:00 -2°C° 0.5 mm 1 m/s 743 mmHg 98%
    03:00 -2°C° 0.3 mm 1 m/s 742 mmHg 97%
    04:00 -2°C° 0.3 mm 1 m/s 742 mmHg 97%
    05:00 -2°C° 0.3 mm 1 m/s 742 mmHg 97%
    06:00 -5°C° 0.1 mm 2 m/s 742 mmHg 96%
    07:00 -6°C° 0.1 mm 3 m/s 742 mmHg 96%
    08:00 -7°C° 0.1 mm 3 m/s 743 mmHg 95%
    09:00 -8°C° 0 mm 4 m/s 743 mmHg 94%
    10:00 -8°C° 0 mm 4 m/s 744 mmHg 93%
    11:00 -8°C° 0 mm 5 m/s 744 mmHg 92%
    12:00 -8°C° 0 mm 5 m/s 744 mmHg 91%
    13:00 -8°C° 0 mm 5 m/s 744 mmHg 91%
    14:00 -8°C° 0 mm 4 m/s 745 mmHg 90%
    15:00 -9°C° 0 mm 4 m/s 745 mmHg 91%
    16:00 -10°C° 0 mm 4 m/s 745 mmHg 92%
    17:00 -10°C° 0 mm 3 m/s 746 mmHg 93%
    18:00 -10°C° 0 mm 3 m/s 746 mmHg 93%
    19:00 -11°C° 0 mm 4 m/s 747 mmHg 92%
    20:00 -10°C° 0 mm 4 m/s 747 mmHg 92%
    21:00 -12°C° 0 mm 3 m/s 748 mmHg 92%
    22:00 -12°C° 0 mm 2 m/s 748 mmHg 92%
    23:00 -13°C° 0 mm 2 m/s 748 mmHg 92%

    22 Janeiro, Terça-feira

    Tempo Temperatura Precipitação Vento Pressão Humidade
    00:00 -14°C° 0 mm 2 m/s 749 mmHg 93%
    01:00 -13°C° 0 mm 1 m/s 749 mmHg 93%
    02:00 -14°C° 0 mm 1 m/s 749 mmHg 93%
    03:00 -14°C° 0 mm 1 m/s 749 mmHg 93%
    04:00 -15°C° 0 mm 0 m/s 748 mmHg 94%
    05:00 -15°C° 0 mm 0 m/s 748 mmHg 94%
    06:00 -15°C° 0 mm 1 m/s 748 mmHg 93%
    07:00 -15°C° 0 mm 1 m/s 748 mmHg 93%
    08:00 -15°C° 0 mm 1 m/s 748 mmHg 92%
    09:00 -15°C° 0 mm 2 m/s 748 mmHg 91%
    10:00 -14°C° 0 mm 2 m/s 748 mmHg 91%
    11:00 -14°C° 0 mm 3 m/s 748 mmHg 90%
    12:00 -13°C° 0 mm 3 m/s 748 mmHg 90%
    13:00 -13°C° 0 mm 3 m/s 747 mmHg 89%
    14:00 -12°C° 0 mm 3 m/s 746 mmHg 88%
    15:00 -12°C° 0 mm 3 m/s 746 mmHg 89%
    16:00 -13°C° 0 mm 3 m/s 745 mmHg 90%
    17:00 -13°C° 0 mm 3 m/s 745 mmHg 91%
    18:00 -14°C° 0.3 mm 4 m/s 744 mmHg 92%
    19:00 -12°C° 0.3 mm 4 m/s 744 mmHg 93%
    20:00 -13°C° 0.3 mm 5 m/s 743 mmHg 94%
    21:00 -13°C° 0.9 mm 5 m/s 743 mmHg 94%
    22:00 -12°C° 0.9 mm 6 m/s 742 mmHg 95%
    23:00 -12°C° 0.9 mm 6 m/s 741 mmHg 95%
    Mostrar mais